   K. Chambers, S. Chastel, T. de Boer, L. Denneau, J. Fairlamb, H.
   Flewelling, M. Huber, C.-C. Lin, E. Magnier, Y. Ramanjooloo, R. Wainscoat,
   R. Weryk. 1.8-m Ritchey-Chrétien + CCD.
(G96) Mt. Lemmon Survey  (N32.442751 W110.788720)  US/Arizona.  Observer A.
   Zooniverse. 1.5-m reflector + 10K CCD.
(H21) Astronomical Research Observatory, Westfield  (N39.483054 W87.968270)
   US/Illinois.  Observer R. Holmes. Measurers S. Foglia, L. Buzzi, T.
   Linder, R. Holmes. 0.76-m f/3.0 astrograph + CCD0.81-m f/4.0 astrograph +
   CCD0.61-m f/4.5 astrograph + CCD0.40-m f/5.32 astrograph + CCD.
(J57) Centro Astronómico Alto Turia, Valencia  (N39.950156 W1.109110)  Spain.
    Observer A. Fornas. Measurers E. Arce, V. Mas, G. Fornas. 0.43-m f/6.8
   reflector + CCD.
(L01) Višnjan Observatory, Tičan  (N45.290897 E13.749300)  Croatia.
   Observers K. Korlević, D. Pujagic, V. Dobos. Measurers D. Pujagic, K.
   Korlević. 1.0-m f/2.9 reflector + CCD.
(L06) Sormano 2 Observatory, Bellagio Via Lattea  (N45.970100 E9.254030)
   Italy.  Observer G. Ventre. Measurers G. Ventre, P. Sicoli. 0.28-m f/10
   reflector + CCD.
(L38) Gartensternwarte Schafsweide, Sehlde  (N52.095274 E9.699970)  Germany.
   Observer A. Opitz. 0.35-m f/4.6 Newton + CCD.
(T14) Mauna Kea-UH/Tholen NEO Follow-Up (CFHT)  (N19.825252 W155.468876)
   US/Hawaii.  Observer R. Weryk. 3.6-m Canada-France-Hawaii Telescope.
(U94) iTelescope Observatory, Beryl Junction  (N37.737780 W113.697500)
   US/Utah.  Observer H. Sato. 0.51-m f/4.5 Corrected Dall-Kirkham +
   CCD0.51-m f/6.8 astrograph + f/4.5 focal reducer + CCD.

Orbital elements:  P21IhFT
   Perihelion 2024 Jun 24.07730 +/- 0.0138 TT =  1:51:18 (JD 2460485.57730)
Epoch 2023 Sep 26.0 TT = JDT 2460213.5                           AutoNEOCP
M 359.95803277 +/- 0.00059          (J2000 ecliptic)
n   0.00015424 +/- 2.17e-6          Peri.  171.72208 +/- 0.0034
a 344.342586 +/- 3.24               Node    92.68262 +/- 0.0007
e   0.9906792 +/- 8.72e-5           Incl.  104.05404 +/- 0.00016
P6389.78                   H 13.96  G  0.15   U  4.0
q 3.20954076 +/- 9.97e-5    Q 685.475631 +/- 6.47
From 94 observations 2023 July 6-Sept. 26; mean residual 0".36
Residuals in arcseconds: 
230706 F52  .12-  .12-    230901 658  .30+  .52+    230908 658  .48-  .03-    
230706 F52  .06+  .15+    230901 658  .56+  .06+    230908 658  .22-  .09+    
230823 F52  .14-  .14-    230901 658  .40+  .19+    230908 658  .23-  .01+    
230823 F52  .00   .04+    230901 658  .56+  .18+    230908 658  .13+  .07-    
230823 F52  .16+  .03-    230901 595  .27+  .21+    230908 658  .04-  .01+    
230823 F52  .07+  .11-    230901 595  .64+  .14-    230908 L38  .02+  .00     
230823 F51  .06-  .04+    230901 595  .67+  .10+    230908 L38  .06+  .60-    
230823 F51  .09-  .05+    230902 L06  .40-  .20+    230909 T14  .12-  .06-    
230823 033  .01+  .03+    230902 587  .63+  .63+    230909 T14  .11-  .04-    
230823 033  .00   .10+    230902 587  .45+  .79+    230909 T14  .12-  .06-    
230823 033  .05-  .07+    230902 587  .27+  .46+    230909 T14  .10-  .06-    
230824 H21  .12+  .19+    230902 L06  .53-  .44+    230913 673  .38+  .20-    
230824 H21  .28-  .25-    230902 104  .09-  .88+    230913 673  .12-  .51-    
230824 H21  .03+  .14+    230902 104  .05+  .07+    230915 673  .37+  .59+    
230824 L01  .89+  .52-    230902 104  .07+  .56+    230915 673  .49+  .09-    
230824 L01  .07-  .20-    230904 L38  .38+  .36+    230918 F51  .08-  .07-    
230824 L01  .41+  .29-    230904 L38  .68+  .49+    230918 F51  .04-  .07-    
230824 L01  .92+  .29+    230904 L38  .87+  .22+    230918 F51  .06-  .01-    
230824 L01  .96+  .88+    230905 L38  .47+  .65+    230918 F51  .05-  .08-    
230825 H21  .28+  .24+    230905 A77  .25-  .17-    230921 G96  .22+  .07-    
230825 H21  .23+  .06-    230905 L38  .17-  .66+    230921 G96  .19+  .52-    
230825 H21  .23+  .06-    230905 L38  .39+  .12-    230921 G96  .51+  .11-    
230825 654  .36+  .34+    230905 A77  .58-  .28+    230921 G96  .63+  .11-    
230825 654  .23-  .59-    230905 A77  .83-  .04+    230922 J57  .00   .56+    
230825 L01  .40+  .04+    230906 U94  .08+  .11-    230922 J57  .07+  .58+    
230825 L01  .12+  .01-    230906 U94  .34+  .19-    230924 L38  .17+  .39+    
230825 106  .59+  .14+    230906 L38  .01-  .26-    230924 L38  .51+  .02+    
230825 L01  .87+  .82-    230906 C10  .48+  .18+    230926 291  .46+  .46+    
230825 106  .25+  .10-    230906 L38  .50+  .13-    230926 291  .23+  .10+    
230829 F51  .10-  .11-    230906 L38  .95+  .12-    230926 291  .22+  .30+    
230829 F51  .25-  .03-    230906 C10  .45+  .18+    
230901 658  .18+  .34+    230906 C10  .18+  .21+    

Ephemerides (geocentric):
Date (UTC) HH   RA             Dec           delta  r     elong  mag " sig PA
---- --------  ------------   ------------  ------ ------ -----  --- --------
2023 09 27 00  17 57 57.577   +39 18 55.35  3.9962 4.0874  88.1 20.8 .088  96
2023 09 27 01  17 57 57.471   +39 17 59.68  3.9963 4.0872  88.1 20.8 .088  96
2023 09 27 02  17 57 57.368   +39 17 04.00  3.9964 4.0870  88.0 20.8 .088  96
2023 09 27 03  17 57 57.266   +39 16 08.34  3.9965 4.0868  88.0 20.8 .088  96
2023 09 27 04  17 57 57.167   +39 15 12.67  3.9966 4.0865  88.0 20.8 .089  96
2023 09 27 05  17 57 57.071   +39 14 17.01  3.9967 4.0863  88.0 20.8 .089  96
2023 09 27 06  17 57 56.976   +39 13 21.36  3.9969 4.0861  88.0 20.8 .089  96
2023 09 27 07  17 57 56.884   +39 12 25.71  3.9970 4.0858  87.9 20.8 .089  96
2023 09 27 08  17 57 56.794   +39 11 30.07  3.9971 4.0856  87.9 20.8 .090  96
2023 09 27 09  17 57 56.706   +39 10 34.43  3.9972 4.0854  87.9 20.8 .090  96
2023 09 27 10  17 57 56.621   +39 09 38.80  3.9973 4.0851  87.9 20.8 .090  96
2023 09 27 11  17 57 56.538   +39 08 43.17  3.9974 4.0849  87.9 20.8 .090  96
2023 09 27 12  17 57 56.457   +39 07 47.54  3.9976 4.0847  87.8 20.8 .091  96
2023 09 27 13  17 57 56.378   +39 06 51.93  3.9977 4.0844  87.8 20.8 .091  96
2023 09 27 14  17 57 56.302   +39 05 56.31  3.9978 4.0842  87.8 20.8 .091  96
2023 09 27 15  17 57 56.228   +39 05 00.70  3.9979 4.0840  87.8 20.8 .091  96
2023 09 27 16  17 57 56.156   +39 04 05.10  3.9980 4.0838  87.8 20.8 .092  96
2023 09 27 17  17 57 56.086   +39 03 09.50  3.9982 4.0835  87.7 20.8 .092  96
2023 09 27 18  17 57 56.019   +39 02 13.91  3.9983 4.0833  87.7 20.8 .092  96
2023 09 27 19  17 57 55.954   +39 01 18.32  3.9984 4.0831  87.7 20.8 .092  96
2023 09 27 20  17 57 55.891   +39 00 22.74  3.9985 4.0828  87.7 20.8 .093  96
2023 09 27 21  17 57 55.830   +38 59 27.16  3.9986 4.0826  87.7 20.8 .093  96
2023 09 27 22  17 57 55.772   +38 58 31.59  3.9988 4.0824  87.6 20.8 .093  96
2023 09 27 23  17 57 55.716   +38 57 36.02  3.9989 4.0821  87.6 20.8 .093  96
2023 09 28 00  17 57 55.662   +38 56 40.46  3.9990 4.0819  87.6 20.8 .094  96
2023 09 28 01  17 57 55.610   +38 55 44.90  3.9991 4.0817  87.6 20.8 .094  96
2023 09 28 02  17 57 55.560   +38 54 49.35  3.9992 4.0814  87.6 20.8 .094  96
2023 09 28 03  17 57 55.513   +38 53 53.80  3.9994 4.0812  87.5 20.8 .094  96
2023 09 28 04  17 57 55.468   +38 52 58.26  3.9995 4.0810  87.5 20.8 .095  96
2023 09 28 05  17 57 55.425   +38 52 02.73  3.9996 4.0808  87.5 20.8 .095  96
2023 09 28 06  17 57 55.385   +38 51 07.20  3.9997 4.0805  87.5 20.8 .095  96
2023 09 28 07  17 57 55.346   +38 50 11.67  3.9998 4.0803  87.5 20.8 .096  96
2023 09 28 08  17 57 55.310   +38 49 16.15  4.0000 4.0801  87.4 20.8 .096  96
2023 09 28 09  17 57 55.276   +38 48 20.64  4.0001 4.0798  87.4 20.8 .096  96
2023 09 28 10  17 57 55.245   +38 47 25.13  4.0002 4.0796  87.4 20.8 .096  96
2023 09 28 11  17 57 55.215   +38 46 29.63  4.0003 4.0794  87.4 20.8 .097  96
2023 09 28 12  17 57 55.188   +38 45 34.13  4.0005 4.0791  87.4 20.8 .097  96
2023 09 28 13  17 57 55.163   +38 44 38.64  4.0006 4.0789  87.3 20.8 .097  96
2023 09 28 14  17 57 55.140   +38 43 43.15  4.0007 4.0787  87.3 20.8 .097  96
2023 09 28 15  17 57 55.119   +38 42 47.67  4.0008 4.0784  87.3 20.8 .098  96
2023 09 28 16  17 57 55.101   +38 41 52.19  4.0010 4.0782  87.3 20.8 .098  96
2023 09 28 17  17 57 55.084   +38 40 56.72  4.0011 4.0780  87.3 20.8 .098  96
2023 09 28 18  17 57 55.070   +38 40 01.26  4.0012 4.0778  87.2 20.8 .098  96
2023 09 28 19  17 57 55.059   +38 39 05.80  4.0013 4.0775  87.2 20.8 .099  96
2023 09 28 20  17 57 55.049   +38 38 10.35  4.0015 4.0773  87.2 20.8 .099  96
2023 09 28 21  17 57 55.041   +38 37 14.90  4.0016 4.0771  87.2 20.8 .099  96
2023 09 28 22  17 57 55.036   +38 36 19.46  4.0017 4.0768  87.2 20.8 .099  95
2023 09 28 23  17 57 55.033   +38 35 24.02  4.0018 4.0766  87.1 20.8 .100  95